• Join FlightAware (Why Join?)
  • Login
  • US Flag 
 
08:47AM EST


 

Airport Tracker/Info


-or-


 

Live Flight TrackerFlight Track Log ✈ RPA3228 ✈ 13-Jul-2013 ✈ KDCA - KBUF

Flight Track Log - Related Links

Times and Time Zones

All times are in EDT time to prevent confusion due to time zone crossing. See the RPA3228 flight status page for this flight to view local times or setup timezone preferences in your user account.

Time Position Orientation Groundspeed Altitude Reporting Facility
EDT Latitude Longitude Course Direction KTS MPH feet Rate Location/Type
10:34AM 38.8833 -77.0500 339° North 164 189 1,500  Level Potomac TRACON
10:35AM 38.9167 -77.1000 311° West 217 250 3,100 2,340 Climbing Potomac TRACON
10:36AM 38.9667 -77.1667 314° West 280 322 6,000 3,060 Climbing Potomac TRACON
10:37AM 39.1885 -77.2184 346° North  Level FlightAware Approximate
10:37AM 39.0000 -77.2500 297° West 296 341 9,000  Level Potomac TRACON
10:38AM 39.2795 -77.2589 337° Northwest  Level FlightAware Approximate
10:38AM 39.0333 -77.3500 293° West 317 365 11,500  Level Potomac TRACON
10:39AM 39.3683 -77.3083 337° Northwest  Level FlightAware Approximate
10:40AM 39.4557 -77.3612 339° North  Level FlightAware Approximate
10:40AM 39.1228 -77.5447 301° West 356 410 16,300  Level Washington Center
10:41AM 39.2269 -77.5394 North 314 361 17,000 1,080 Climbing Washington Center
10:42AM 39.3378 -77.5183 North 342 394 18,500 1,680 Climbing Washington Center
10:43AM 39.4550 -77.4944 North 387 445 20,400 1,680 Climbing Washington Center
10:46AM 39.7447 -77.4564 North 439 505 24,400 1,560 Climbing New York Center
10:47AM 39.8719 -77.4550 360° North 452 520 25,800 780 Climbing New York Center
10:48AM 39.9986 -77.4672 356° North 452 520 26,000 60 Climbing New York Center
10:49AM 40.1208 -77.5142 344° North 457 526 26,000  Level New York Center
10:50AM 40.2453 -77.5617 344° North 462 532 26,000  Level New York Center
10:51AM 40.3656 -77.6117 342° North 462 532 26,000  Level New York Center
10:53AM 40.6403 -77.7292 342° North 451 519 26,000  Level Cleveland Center
10:54AM 40.7625 -77.7814 342° North 451 519 26,000  Level Cleveland Center
10:55AM 40.8739 -77.8261 343° North 456 525 26,000  Level Cleveland Center
10:56AM 40.9961 -77.8786 342° North 456 525 26,000  Level Cleveland Center
10:57AM 41.1161 -77.9289 342° North 456 525 26,000  Level Cleveland Center
10:58AM 41.2383 -77.9819 342° North 456 525 26,000  Level Cleveland Center
10:59AM 41.3625 -78.0350 342° North 462 532 26,000  Level Cleveland Center
11:00AM 41.4847 -78.0883 342° North 462 532 26,000 -300 Level Cleveland Center
11:01AM 41.6067 -78.1419 342° North 462 532 25,400 -1,260 Descending Cleveland Center
11:02AM 41.7183 -78.1908 342° North 446 513 23,500 -2,040 Descending Cleveland Center
11:03AM 41.8339 -78.2394 343° North 409 471 21,400 -1,920 Descending Cleveland Center
11:04AM 41.9350 -78.2858 341° North 395 455 19,700 -1,740 Descending Cleveland Center
11:05AM 42.0358 -78.3297 342° North 383 441 18,000 -1,740 Descending Cleveland Center
11:06AM 42.1369 -78.3739 342° North 383 441 16,300 -1,500 Descending Cleveland Center
11:07AM 42.2231 -78.4100 343° North 370 426 15,000 -1,500 Descending Cleveland Center
11:08AM 42.3156 -78.4519 341° North 365 420 13,400 -1,560 Descending Cleveland Center
11:09AM 42.4058 -78.4911 342° North 352 405 11,900 -1,500 Descending Cleveland Center
11:10AM 42.4919 -78.5275 343° North 337 388 10,500 -1,680 Descending Cleveland Center
11:11AM 42.5539 -78.6186 313° West 297 342 8,600 -1,860 Descending Cleveland Center
11:12AM 42.5992 -78.6989 307° West 297 342 6,800 -1,800 Descending Cleveland Center
11:13AM 42.6647 -78.7564 327° Northwest 287 330 5,000 -1,440 Descending Cleveland Center
11:14AM 42.7444 -78.7992 338° Northwest 277 319 4,000 -900 Descending Cleveland Center
11:15AM 42.8033 -78.8344 336° Northwest 250 288 3,300 -900 Descending Cleveland Center
11:16AM 42.8556 -78.8358 359° North 213 245 2,300 -1,020 Descending Cleveland Center